Location: Cisewo
(53.3833°N, 14.9000°E)
Time: 11:13:12
(UTC+00:00)

Cosmos 1844 Rocket - Pass Details

Date: 18 April 2021
Orbit: 825 x 844 km, 71.0° (Epoch: 14 May)

Event Time Altitude Azimuth Distance (km) Brightness Sun altitude
Exits shadow 23:39:35 60° 144° (SE) 947 2.7 -24.9°
Maximum altitude 23:40:07 63° 115° (ESE) 923 2.7 -24.9°
Drops below altitude 10° 23:45:37 10° 36° (NE) 2,440 6.0 -24.7°
Sets 23:48:05 0° 34° (NNE) 3,380 7.0 -24.6°
